Weather History for Watsonville, CA

Change the Weather History Date:

Monday, June 24, 2013

  Actual Average Record
Temperature  
Mean Temperature 62 °F 63 °F  
Max Temperature 65 °F 74 °F 78 °F (2007)
Min Temperature 58 °F 52 °F 46 °F (2007)
Degree Days  
Heating Degree Days 3    
Month to date heating degree days 102  
Since 1 June heating degree days 102  
Since 1 July heating degree days 3020  
Cooling Degree Days 0    
Month to date cooling degree days 0  
Year to date cooling degree days 6  
Since 1 June cooling degree days 0  
Growing Degree Days 10 (Base 50)    
Moisture  
Dew Point 57 °F    
Average Humidity 89    
Maximum Humidity 100    
Minimum Humidity 78    
Precipitation  
Precipitation 0.02 in - 0.16 in (1975)
Month to date precipitation 0.04  
Year to date precipitation 2.38  
Since 1 July precipitation 13.32  
Sea Level Pressure  
Sea Level Pressure 29.89 in    
Wind  
Wind Speed 4 mph (SW)    
Max Wind Speed 10 mph    
Max Gust Speed 30 mph    
Visibility 4 miles    
Events Rain    
T = Trace of Precipitation, MM = Missing Value Source: NWS Daily Summary

Daily Weather History Graph

Daily Weather History Graph

Search for Another Location

Airport:

Trip Planner

Search our weather history database for the weather conditions in past years. The results will help you decide how hot, cold, wet, or windy it might be!

Date:

Astronomy

Jun. 24, 2013 Rise Set
Actual Time 5:48 AM PDT 8:30 PM PDT
Civil Twilight 5:18 AM PDT 9:01 PM PDT
Nautical Twilight 4:39 AM PDT 9:39 PM PDT
Astronomical Twilight 3:56 AM PDT 10:22 PM PDT
Moon 9:40 PM PDT (6/24) 7:20 AM PDT (6/24)
Length of Visible Light 15h 43m
Length of Day
14h 41m
Full, 97% of the Moon is Illuminated
Jun 24
Full
Jun 29
Last Quarter
Jul 8
New
Jul 15
First Quarter
Jul 22
Full

Hourly Weather History & Observations

Time (PDT) Temp. Dew Point Humidity Pressure Visibility Wind Dir Wind Speed Gust Speed Precip Events Conditions
12:39 AM 59.0 °F 57.2 °F 94% 29.85 in 2.0 mi Calm Calm - N/A   Overcast
12:50 AM 59.0 °F 57.2 °F 94% 29.85 in 1.8 mi Calm Calm - N/A   Overcast
12:53 AM 59.0 °F 57.0 °F 93% 29.85 in 1.8 mi Calm Calm - N/A   Overcast
1:53 AM 59.0 °F 57.9 °F 96% 29.84 in 2.0 mi Calm Calm - N/A   Overcast
2:36 AM 59.0 °F 57.2 °F 94% 29.84 in 1.8 mi Calm Calm - N/A   Overcast
2:53 AM 59.0 °F 57.9 °F 96% 29.83 in 1.2 mi Calm Calm - N/A   Overcast
3:53 AM 59.0 °F 57.9 °F 96% 29.83 in 1.2 mi Calm Calm - 0.01 in   Overcast
4:00 AM 59.0 °F 57.2 °F 94% 29.83 in 1.5 mi Calm Calm - N/A   Overcast
4:19 AM 59.0 °F 57.2 °F 94% 29.83 in 3.0 mi Calm Calm - N/A   Overcast
4:31 AM 59.0 °F 57.2 °F 94% 29.83 in 1.8 mi Calm Calm - N/A   Overcast
4:39 AM 59.0 °F 57.2 °F 94% 29.83 in 1.0 mi Calm Calm - N/A   Mist
4:53 AM 59.0 °F 57.9 °F 96% 29.83 in 1.0 mi Calm Calm - N/A   Mist
5:06 AM 59.0 °F 57.2 °F 94% 29.84 in 1.5 mi Calm Calm - N/A   Overcast
5:14 AM 59.0 °F 57.2 °F 94% 29.84 in 1.2 mi South 3.5 mph - N/A   Overcast
5:22 AM 59.0 °F 57.2 °F 94% 29.84 in 1.5 mi South 3.5 mph - N/A   Overcast
5:39 AM 57.2 °F 57.2 °F 100% 29.84 in 3.0 mi SSW 3.5 mph - N/A   Overcast
5:53 AM 57.9 °F 57.0 °F 97% 29.84 in 5.0 mi SSW 3.5 mph - N/A   Overcast
6:42 AM 57.2 °F 57.2 °F 100% 29.86 in 9.0 mi Calm Calm - 0.00 in   Overcast
6:53 AM 59.0 °F 57.9 °F 96% 29.86 in 3.0 mi South 3.5 mph - 0.00 in   Overcast
6:57 AM 59.0 °F 57.2 °F 94% 29.86 in 1.8 mi South 3.5 mph - N/A   Overcast
7:06 AM 59.0 °F 57.2 °F 94% 29.85 in 1.2 mi Calm Calm - N/A   Overcast
7:17 AM 59.0 °F 57.2 °F 94% 29.86 in 1.8 mi SSW 5.8 mph - N/A   Overcast
7:24 AM 59.0 °F 57.2 °F 94% 29.86 in 3.0 mi Calm Calm - N/A   Overcast
7:49 AM 59.0 °F 57.2 °F 94% 29.87 in 1.8 mi South 3.5 mph - N/A   Overcast
7:53 AM 59.0 °F 57.9 °F 96% 29.87 in 1.8 mi Variable 3.5 mph - N/A   Overcast
7:59 AM 59.0 °F 57.2 °F 94% 29.87 in 3.0 mi SSW 3.5 mph - N/A   Overcast
8:53 AM 57.9 °F 57.0 °F 97% 29.90 in 3.0 mi South 5.8 mph - 0.01 in Rain Light Rain
9:53 AM 57.9 °F 57.0 °F 97% 29.90 in 4.0 mi SSW 5.8 mph - 0.00 in   Overcast
10:53 AM 59.0 °F 57.0 °F 93% 29.92 in 7.0 mi WSW 5.8 mph - N/A   Overcast
11:00 AM 59.0 °F 57.2 °F 94% 29.92 in 9.0 mi SW 5.8 mph - N/A   Overcast
11:23 AM 59.0 °F 57.2 °F 94% 29.92 in 10.0 mi SW 4.6 mph - N/A   Overcast
11:53 AM 60.1 °F 57.9 °F 93% 29.92 in 6.0 mi West 4.6 mph - N/A   Overcast
12:18 PM 60.8 °F 57.2 °F 88% 29.92 in 2.5 mi West 3.5 mph - 0.00 in Rain Light Rain
12:26 PM 60.8 °F 57.2 °F 88% 29.92 in 5.0 mi Variable 3.5 mph - 0.00 in   Overcast
12:53 PM 61.0 °F 59.0 °F 93% 29.93 in 4.0 mi WSW 6.9 mph - 0.00 in   Overcast
1:04 PM 60.8 °F 57.2 °F 88% 29.93 in 3.0 mi SW 6.9 mph - N/A   Overcast
1:53 PM 62.1 °F 57.9 °F 86% 29.92 in 10.0 mi SW 5.8 mph - 0.00 in   Overcast
2:53 PM 64.0 °F 57.0 °F 78% 29.93 in 10.0 mi SW 9.2 mph - N/A   Overcast
3:53 PM 63.0 °F 57.0 °F 81% 29.92 in 10.0 mi SW 6.9 mph - N/A   Overcast
4:53 PM 62.1 °F 57.0 °F 84% 29.91 in 10.0 mi WSW 4.6 mph - N/A   Overcast
5:36 PM 60.8 °F 57.2 °F 88% 29.92 in 2.5 mi WSW 5.8 mph - N/A   Overcast
5:53 PM 60.1 °F 57.0 °F 90% 29.92 in 4.0 mi West 4.6 mph - N/A   Overcast
6:21 PM 60.8 °F 55.4 °F 82% 29.92 in 10.0 mi West 4.6 mph - N/A   Overcast
6:53 PM 60.1 °F 57.0 °F 90% 29.92 in 10.0 mi WSW 4.6 mph - N/A   Overcast
7:53 PM 60.1 °F 57.0 °F 90% 29.93 in 10.0 mi SW 4.6 mph - N/A   Overcast
8:53 PM 59.0 °F 57.0 °F 93% 29.93 in 10.0 mi Calm Calm - N/A   Overcast
9:46 PM 59.0 °F 57.2 °F 94% 29.95 in 4.0 mi Calm Calm - N/A   Overcast
9:53 PM 59.0 °F 57.0 °F 93% 29.95 in 4.0 mi Calm Calm - N/A   Overcast
10:08 PM 57.2 °F 57.2 °F 100% 29.95 in 3.0 mi SSW 3.5 mph - N/A   Overcast
10:25 PM 57.2 °F 55.4 °F 94% 29.95 in 3.0 mi WSW 4.6 mph - N/A   Overcast
10:34 PM 57.2 °F 55.4 °F 94% 29.96 in 3.0 mi SW 3.5 mph - N/A   Overcast
10:53 PM 57.9 °F 57.0 °F 97% 29.96 in 5.0 mi Calm Calm - N/A   Overcast
11:46 PM 57.2 °F 57.2 °F 100% 29.96 in 3.0 mi Calm Calm - N/A   Overcast
11:53 PM 59.0 °F 57.0 °F 93% 29.96 in 4.0 mi Calm Calm - N/A   Overcast